Chattanooga, TN

9:03 AM EST on December 06, 2019 (GMT -0500)
Lovell

Weather History for KCHA - October, 2019

Change the Weather History Date:

Tuesday, October 15, 2019

  Actual Average Record
Temperature  
Mean Temperature 65 °F 62 °F  
Max Temperature 75 °F 73 °F 85 °F (1935)
Min Temperature 55 °F 50 °F 34 °F (1987)
Degree Days  
Heating Degree Days 0 5  
Month to date heating degree days 48  
Since 1 July heating degree days 63  
Cooling Degree Days 0 1  
Month to date cooling degree days 36  
Year to date cooling degree days 1725  
Growing Degree Days 15 (Base 50)    
Moisture  
Dew Point 53 °F    
Average Humidity 65    
Maximum Humidity 81    
Minimum Humidity 43    
Precipitation  
Precipitation 0.00 in 0.10 in 1.56 in (2012)
Month to date precipitation 1.60  
Year to date precipitation 40.90  
Snow  
Snow - 0.00 in - ()
Month to date snowfall 0.0  
Since 1 July snowfall 0.0  
Since 1 September snowfall 0.0  
Snow Depth -    
Sea Level Pressure  
Sea Level Pressure 30.02 in    
Wind  
Wind Speed 3 mph ()    
Max Wind Speed 10 mph    
Max Gust Speed 18 mph    
Visibility 10.0 miles    
Events      
T = Trace of Precipitation, MM = Missing Value Source: Averaged Metar Reports

Daily Weather History Graph

Daily Weather History Graph

Search for Another Location

Airport or City:

Astronomy

Oct. 15, 2019 Rise Set
Actual Time 7:46 AM EDT 7:06 PM EDT
Civil Twilight 7:21 AM EDT 7:31 PM EDT
Nautical Twilight 6:51 AM EDT 8:00 PM EDT
Astronomical Twilight 6:22 AM EDT 8:30 PM EDT
Moon 8:28 PM EDT (10/15) 9:14 AM EDT (10/15)
Length of Visible Light 12h 10m
Length of Day
11h 19m
Full, 97% of the Moon is Illuminated
Oct 15
Full
Oct 21
Last Quarter
Oct 27
New
Nov 4
First Quarter
Nov 12
Full

Hourly Weather History & Observations

Time (EDT) Temp. Dew Point Humidity Pressure Visibility Wind Dir Wind Speed Gust Speed Precip Events Conditions
12:53 AM 55.9 °F 48.9 °F 77% 30.10 in 10.0 mi North 3.5 mph - N/A   Clear
1:53 AM 57.9 °F 50.0 °F 75% 30.10 in 10.0 mi Calm Calm - N/A   Mostly Cloudy
2:53 AM 57.9 °F 48.0 °F 70% 30.09 in 10.0 mi Calm Calm - N/A   Scattered Clouds
3:53 AM 55.0 °F 48.9 °F 80% 30.09 in 10.0 mi NNW 4.6 mph - N/A   Mostly Cloudy
4:53 AM 57.0 °F 48.9 °F 74% 30.09 in 10.0 mi Calm Calm - N/A   Partly Cloudy
5:53 AM 55.9 °F 48.9 °F 77% 30.09 in 10.0 mi WSW 3.5 mph - N/A   Mostly Cloudy
6:53 AM 57.0 °F 51.1 °F 81% 30.10 in 10.0 mi NNW 3.5 mph - N/A   Mostly Cloudy
7:53 AM 57.0 °F 50.0 °F 77% 30.10 in 10.0 mi Calm Calm - N/A   Mostly Cloudy
8:53 AM 60.1 °F 51.1 °F 72% 30.10 in 10.0 mi Calm Calm - N/A   Mostly Cloudy
9:53 AM 62.1 °F 48.0 °F 60% 30.10 in 10.0 mi Calm Calm - N/A   Mostly Cloudy
10:53 AM 66.9 °F 46.0 °F 47% 30.08 in 10.0 mi Calm Calm - N/A   Mostly Cloudy
11:53 AM 72.0 °F 48.0 °F 43% 30.06 in 10.0 mi Variable 3.5 mph - N/A   Mostly Cloudy
12:53 PM 73.9 °F 51.1 °F 45% 30.05 in 10.0 mi Variable 5.8 mph - N/A   Mostly Cloudy
1:53 PM 75.0 °F 54.0 °F 48% 30.02 in 10.0 mi South 6.9 mph - N/A   Mostly Cloudy
2:53 PM 75.0 °F 55.0 °F 50% 30.00 in 10.0 mi South 6.9 mph - N/A   Overcast
3:53 PM 73.9 °F 57.0 °F 55% 29.98 in 10.0 mi SSE 5.8 mph - N/A   Overcast
4:53 PM 75.0 °F 57.0 °F 53% 29.96 in 10.0 mi Variable 5.8 mph - N/A   Overcast
5:53 PM 73.0 °F 55.9 °F 55% 29.95 in 10.0 mi SE 10.4 mph - N/A   Overcast
6:45 PM 70.0 °F 59.0 °F 68% 29.96 in 10.0 mi SSE 9.2 mph 18.4 mph N/A   Overcast
6:53 PM 70.0 °F 59.0 °F 68% 29.94 in 10.0 mi SE 10.4 mph - N/A   Overcast
7:53 PM 69.1 °F 57.9 °F 68% 29.94 in 10.0 mi South 8.1 mph - N/A   Overcast
8:53 PM 69.1 °F 57.9 °F 68% 29.93 in 10.0 mi South 3.5 mph - N/A   Overcast
9:53 PM 69.1 °F 57.9 °F 68% 29.93 in 10.0 mi South 4.6 mph - N/A   Overcast
10:53 PM 69.1 °F 57.9 °F 68% 29.93 in 10.0 mi South 3.5 mph - N/A   Overcast
11:53 PM 68.0 °F 60.1 °F 76% 29.91 in 10.0 mi South 5.8 mph - N/A   Overcast